Regional Weather Roundup
Issued by NWS

Home | Current Version | Previous Version | Graphics & Text | Print | Product List | Glossary On
Versions: 1 2 3 4 5 6 7 8 9 10 11 12 13 14 15 16 17 18 19 20 21 22 23 24 25 26 27 28 29 30 31 32 33 34 35 36 37 38 39 40 41 42 43 44 45 46 47 48 49 50
165
ASUS43 KDTX 172310
RWRMI
MICHIGAN HOURLY REGIONAL WEATHER ROUNDUP
NATIONAL WEATHER SERVICE DETROIT/PONTIAC MI
600 PM EST TUE JAN 17 2017

NOTE: "FAIR" INDICATES FEW OR NO CLOUDS BELOW 12,000 FEET WITH NO
SIGNIFICANT WEATHER AND/OR OBSTRUCTION TO VISIBILITY.

MIZ047>049-052>055-059>063-066>070-074>076-081>083-180000-
SOUTHEAST LOWER MICHIGAN

CITY           SKY/WX    TMP DP  RH WIND       PRES   REMARKS
ADRIAN         CLOUDY    41  40  96 W12       29.87R
ALMA           CLOUDY    34  34  98 W6        29.85R FOG     WCI  29
ANN ARBOR      CLOUDY    41  40  96 W13       29.84R
BAD AXE        FOG       35  35 100 CALM      29.79R VSB 1/4
CARO           FOG       34  34  99 W7        29.81R VSB 1   WCI  28
DETROIT CITY   CLOUDY    43  43 100 W12G22    29.83R FOG
DETROIT        CLOUDY    44  42  93 W12       29.85R FOG
FLINT          FOG       36  36 100 W8        29.83R VSB 1   WCI  30
GROSSE ILE     CLOUDY    43  41  92 W13       29.83R
HILLSDALE      CLOUDY    37  37 100 W8        29.86R FOG     WCI  31
HOWELL         CLOUDY    38  38  97 W12       29.84R FOG     WCI  31

CITY           SKY/WX    TMP DP  RH WIND       PRES   REMARKS
JACKSON        CLOUDY    38  36  92 W13G20    29.86R FOG     WCI  30
LAMBERTVILLE   CLOUDY    45  42  89 W12G17    29.86R
LANSING        CLOUDY    38  36  92 W10       29.86R FOG     WCI  31
LAPEER         CLOUDY    37  37 100 W9        29.81R WCI  30
MASON          CLOUDY    38  38 100 W7        29.85R FOG     WCI  32
MONROE         CLOUDY    43  42  98 W13       29.84R
MT. CLEMENS    DRIZZLE   42  42 100 W9        29.79R FOG
PONTIAC        DRIZZLE   39  37  92 W9        29.81R FOG     WCI  33
PORT HOPE        N/A     34  33  96 CALM      29.77R
PORT HURON     CLOUDY    39  39 100 SW5       29.81R
TRI CITIES     FOG       35  35 100 SW7       29.84R VSB 1/4 WCI  29
MIDLAND        FOG       36  35  96 SW5       29.83R VSB 1/2 WCI  32
TROY           CLOUDY    42  39  89 W12G20    29.84R FOG
SAGINAW HB     CLOUDY    36  32  87 SW6       29.83R FOG     WCI  31
$$
MIZ043>046-050>051-056>058-064>065-071>073-077>080-180000-
SOUTHWEST LOWER MICHIGAN

CITY           SKY/WX    TMP DP  RH WIND       PRES   REMARKS
BATTLE CREEK   CLOUDY    38  37  97 W13       29.88R WCI  30
BENTON HARBOR  CLOUDY    38  36  92 SW10      29.92R FOG     WCI  31
BIG RAPIDS     CLOUDY    33  33  96 W3        29.83R FOG
COLDWATER      CLOUDY    38  38 100 W10       29.89R FOG     WCI  31
FREMONT        MIX PCPN  35  35 100 SW5       29.85R VSB 1/2 WCI  30
HOLLAND        CLOUDY    37  36  96 W12       29.88R FOG     WCI  29
GRAND RAPIDS   DRZL/FOG  37  35  92 W9        29.86R VSB 1   WCI  30
IONIA          CLOUDY    35  35  99 W12       29.85R FOG     WCI  27
KALAMAZOO      CLOUDY    38  35  89 W9        29.89R FOG     WCI  31
LUDINGTON      LGT RAIN  35  35 100 CALM      29.85R VSB 3/4
MARSHALL       CLOUDY    38  37  98 W9        29.87R FOG     WCI  31
MOUNT PLEASANT FOG       34  34  99 W3        29.83R VSB 3/4
MUSKEGON       DRIZZLE   38  37  97 W10       29.88R FOG     WCI  31
SOUTH HAVEN    CLOUDY    38  37  99 W7        29.90R WCI  32
$$
MIZ016>042-180000-
NORTHERN LOWER MICHIGAN

CITY           SKY/WX    TMP DP  RH WIND       PRES   REMARKS
ALPENA         CLOUDY    34  33  96 NE6       29.85R FOG     WCI  29
BEAVER ISLAND  CLOUDY    32  32 100 E6        29.89R FOG     WCI  26
BELLAIRE       CLOUDY    34  33  96 CALM      29.86R
CADILLAC       FOG       33  32  96 CALM      29.81R VSB 3/4
CHARLEVOIX     CLOUDY    33  33 100 E7        29.89S FOG     WCI  27
FRANKFORT      CLOUDY    35  35  99 CALM      29.85R FOG
GAYLORD        CLOUDY    34  31  88 NE7       29.82R FOG     WCI  28
GRAYLING       CLOUDY    34  33  96 N5        29.84R FOG     WCI  30
HARBOR SPRINGS CLOUDY    32  31  96 NE6       29.86S FOG     WCI  26
HOUGHTON LAKE  CLOUDY    34  32  92 N3        29.82R FOG
MANISTEE       LGT RAIN  35  34  96 W3        29.85R VSB 1/4
OSCODA         FOG       36  35  97 NW6       29.81R VSB 3/4 WCI  31
PELLSTON       CLOUDY    32  29  88 NE8       29.88R FOG     WCI  25
ROGERS CITY    LGT SNOW  34  33  95 NE9       29.87S WCI  26
TRAVERSE CITY  DRIZZLE   36  34  92 NE6       29.85R FOG     WCI  31
$$
MIZ007>008-015-180000-
EASTERN UPPER MICHIGAN

CITY           SKY/WX    TMP DP  RH WIND       PRES   REMARKS
KINROSS        CLOUDY    34  26  72 E6        29.88S WCI  29
MACKINAC ISLAN CLOUDY    32  32 100 E13       29.87F WCI  22
NEWBERRY       CLOUDY    32  28  86 N3        29.89R
S. S. MARIE    CLOUDY    36  25  64 NE5       29.88S WCI  32
MUNISING         N/A     34  31  88 N3        29.90S
$$
MIZ004>006-011>014-085-180000-
CENTRAL UPPER MICHIGAN

CITY           SKY/WX    TMP DP  RH WIND       PRES   REMARKS
MANISTIQUE     CLOUDY    33  32  97 N3        29.89R
ESCANABA       CLOUDY    34  34 100 CALM      29.91R FOG
SAWYER-GWINN   CLOUDY    32  27  80 NE6       29.89R WCI  26
$$
MIZ001>003-009>011-084-180000-
WESTERN UPPER MICHIGAN

CITY           SKY/WX    TMP DP  RH WIND       PRES   REMARKS
IRON MOUNTAIN  CLOUDY    36  31  82 CALM      29.88R
HOUGHTON       CLEAR     28  21  75 W5        29.89R WCI  23
COPPER HARBOR    N/A     30  28  92 W5        29.90R WCI  25
IRONWOOD       CLEAR     31  25  78 NW3       29.93R
$$

ABBREVIATIONS USED IN REMARKS
   TC - TEMPERATURE IN CELSIUS
  WCI - WIND CHILL INDEX
   HX - HEAT INDEX
  VSB - VISIBILITY





USA.gov is the U.S. government's official web portal to all federal, state and local government web resources and services.